Hourly Weather Kisrákos

Today, 25 July, Sunday

Time Temperature Precipitation Wind Pressure Humidity
00:00 +19°C° 0.1 mm 2 mps 735 mmHg 78%
01:00 +19°C° 0 mm 2 mps 735 mmHg 80%
02:00 +20°C° 0.3 mm 1 mps 735 mmHg 83%
03:00 +19°C° 0.3 mm 1 mps 735 mmHg 87%
04:00 +19°C° 0.3 mm 1 mps 735 mmHg 90%
05:00 +20°C° 0 mm 1 mps 735 mmHg 87%
06:00 +21°C° 0 mm 1 mps 735 mmHg 84%
07:00 +22°C° 0 mm 1 mps 736 mmHg 82%
08:00 +24°C° 0 mm 1 mps 736 mmHg 73%
09:00 +27°C° 0 mm 1 mps 736 mmHg 65%
10:00 +29°C° 0 mm 1 mps 736 mmHg 56%
11:00 +31°C° 0 mm 2 mps 735 mmHg 49%
12:00 +33°C° 0 mm 3 mps 735 mmHg 43%
13:00 +35°C° 0 mm 4 mps 735 mmHg 36%
14:00 +36°C° 0 mm 4 mps 734 mmHg 33%
15:00 +36°C° 0 mm 5 mps 734 mmHg 31%
16:00 +37°C° 0 mm 5 mps 734 mmHg 28%
17:00 +34°C° 0 mm 5 mps 733 mmHg 34%
18:00 +32°C° 0 mm 4 mps 733 mmHg 40%
19:00 +29°C° 0 mm 4 mps 733 mmHg 45%
20:00 +27°C° 0 mm 4 mps 733 mmHg 49%
21:00 +26°C° 0 mm 3 mps 733 mmHg 52%
22:00 +25°C° 0 mm 3 mps 733 mmHg 55%
23:00 +22°C° 0 mm 3 mps 734 mmHg 62%

Tomorrow, 26 July, Monday

Time Temperature Precipitation Wind Pressure Humidity
00:00 +21°C° 0 mm 2 mps 734 mmHg 68%
01:00 +20°C° 0 mm 2 mps 734 mmHg 75%
02:00 +19°C° 0 mm 2 mps 735 mmHg 79%
03:00 +19°C° 0 mm 1 mps 735 mmHg 84%
04:00 +19°C° 0 mm 1 mps 735 mmHg 89%
05:00 +20°C° 0 mm 1 mps 735 mmHg 84%
06:00 +21°C° 0 mm 1 mps 736 mmHg 80%
07:00 +23°C° 0 mm 1 mps 736 mmHg 75%
08:00 +25°C° 0 mm 1 mps 736 mmHg 66%
09:00 +27°C° 0 mm 1 mps 737 mmHg 56%
10:00 +30°C° 0 mm 1 mps 737 mmHg 47%
11:00 +31°C° 0 mm 2 mps 737 mmHg 43%
12:00 +33°C° 0 mm 3 mps 736 mmHg 39%
13:00 +34°C° 0 mm 4 mps 736 mmHg 35%
14:00 +35°C° 0 mm 5 mps 736 mmHg 34%
15:00 +35°C° 0 mm 5 mps 735 mmHg 32%
16:00 +36°C° 0 mm 6 mps 735 mmHg 31%
17:00 +34°C° 0 mm 5 mps 735 mmHg 36%
18:00 +32°C° 0 mm 5 mps 735 mmHg 42%
19:00 +29°C° 0 mm 5 mps 735 mmHg 48%
20:00 +28°C° 0 mm 5 mps 735 mmHg 50%
21:00 +27°C° 0 mm 5 mps 735 mmHg 52%
22:00 +27°C° 0 mm 5 mps 736 mmHg 53%
23:00 +25°C° 0 mm 4 mps 736 mmHg 56%

Day after tomorrow, 27 July, Tuesday

Time Temperature Precipitation Wind Pressure Humidity
00:00 +24°C° 0 mm 3 mps 736 mmHg 60%
01:00 +23°C° 0 mm 2 mps 737 mmHg 63%
02:00 +21°C° 0 mm 2 mps 737 mmHg 69%
03:00 +20°C° 0 mm 2 mps 737 mmHg 76%
04:00 +20°C° 0 mm 1 mps 737 mmHg 82%
05:00 +21°C° 0 mm 1 mps 738 mmHg 77%
06:00 +23°C° 0 mm 2 mps 738 mmHg 72%
07:00 +24°C° 0 mm 2 mps 739 mmHg 67%
08:00 +26°C° 0 mm 2 mps 739 mmHg 60%
09:00 +28°C° 0 mm 2 mps 739 mmHg 53%
10:00 +30°C° 0 mm 2 mps 739 mmHg 45%
11:00 +31°C° 0 mm 2 mps 739 mmHg 42%
12:00 +33°C° 0 mm 3 mps 739 mmHg 38%
13:00 +35°C° 0 mm 3 mps 738 mmHg 34%
14:00 +35°C° 0 mm 4 mps 738 mmHg 32%
15:00 +36°C° 0 mm 4 mps 738 mmHg 31%
16:00 +36°C° 0 mm 4 mps 737 mmHg 29%
17:00 +34°C° 0 mm 4 mps 737 mmHg 35%
18:00 +32°C° 0 mm 4 mps 737 mmHg 41%
19:00 +29°C° 0 mm 3 mps 737 mmHg 47%
20:00 +28°C° 0 mm 3 mps 737 mmHg 51%
21:00 +26°C° 0 mm 3 mps 737 mmHg 56%
22:00 +24°C° 0 mm 2 mps 737 mmHg 60%
23:00 +23°C° 0 mm 2 mps 737 mmHg 66%

28 July, Wednesday

Time Temperature Precipitation Wind Pressure Humidity
00:00 +22°C° 0 mm 1 mps 737 mmHg 71%
01:00 +21°C° 0 mm 1 mps 737 mmHg 76%
02:00 +20°C° 0 mm 1 mps 737 mmHg 78%
03:00 +20°C° 0 mm 1 mps 737 mmHg 80%
04:00 +20°C° 0 mm 1 mps 737 mmHg 82%
05:00 +21°C° 0 mm 1 mps 737 mmHg 76%
06:00 +23°C° 0 mm 1 mps 737 mmHg 70%
07:00 +24°C° 0 mm 1 mps 738 mmHg 64%
08:00 +27°C° 0 mm 1 mps 737 mmHg 56%
09:00 +29°C° 0 mm 2 mps 737 mmHg 48%
10:00 +31°C° 0 mm 2 mps 737 mmHg 40%
11:00 +34°C° 0 mm 3 mps 737 mmHg 35%
12:00 +36°C° 0 mm 5 mps 736 mmHg 30%
13:00 +39°C° 0 mm 6 mps 736 mmHg 25%
14:00 +39°C° 0 mm 6 mps 736 mmHg 24%
15:00 +39°C° 0 mm 6 mps 735 mmHg 23%
16:00 +39°C° 0 mm 6 mps 735 mmHg 23%
17:00 +36°C° 0 mm 5 mps 735 mmHg 29%
18:00 +33°C° 0 mm 4 mps 735 mmHg 35%
19:00 +30°C° 0 mm 3 mps 736 mmHg 42%
20:00 +27°C° 0 mm 3 mps 736 mmHg 52%
21:00 +23°C° 0 mm 4 mps 737 mmHg 63%
22:00 +20°C° 0 mm 4 mps 738 mmHg 73%
23:00 +19°C° 0 mm 3 mps 738 mmHg 76%

29 July, Thursday

Time Temperature Precipitation Wind Pressure Humidity
00:00 +19°C° 0 mm 3 mps 739 mmHg 79%
01:00 +18°C° 0 mm 2 mps 739 mmHg 83%
02:00 +18°C° 0 mm 2 mps 739 mmHg 84%
03:00 +18°C° 0 mm 1 mps 739 mmHg 86%
04:00 +18°C° 0 mm 1 mps 739 mmHg 88%
05:00 +19°C° 0 mm 1 mps 739 mmHg 81%
06:00 +21°C° 0 mm 1 mps 740 mmHg 74%
07:00 +22°C° 0 mm 1 mps 740 mmHg 67%
08:00 +25°C° 0 mm 1 mps 740 mmHg 59%
09:00 +27°C° 0 mm 1 mps 740 mmHg 52%
10:00 +29°C° 0 mm 1 mps 740 mmHg 44%
11:00 +31°C° 0 mm 2 mps 740 mmHg 40%
12:00 +32°C° 0 mm 2 mps 739 mmHg 37%
13:00 +34°C° 0 mm 2 mps 739 mmHg 33%
14:00 +35°C° 0 mm 2 mps 738 mmHg 32%
15:00 +35°C° 0 mm 2 mps 738 mmHg 30%
16:00 +36°C° 0 mm 2 mps 737 mmHg 29%
17:00 +34°C° 0 mm 2 mps 737 mmHg 35%
18:00 +31°C° 0 mm 2 mps 737 mmHg 40%
19:00 +29°C° 0 mm 1 mps 736 mmHg 46%
20:00 +28°C° 0 mm 1 mps 736 mmHg 49%
21:00 +26°C° 0 mm 1 mps 736 mmHg 52%
22:00 +23°C° 0 mm 0 mps 736 mmHg 55%
23:00 +22°C° 0 mm 0 mps 736 mmHg 57%

30 July, Friday

Time Temperature Precipitation Wind Pressure Humidity
00:00 +22°C° 0 mm 0 mps 736 mmHg 59%
01:00 +21°C° 0 mm 0 mps 735 mmHg 61%
02:00 +22°C° 0 mm 1 mps 735 mmHg 64%
03:00 +22°C° 0 mm 1 mps 735 mmHg 66%
04:00 +21°C° 0 mm 1 mps 735 mmHg 68%
05:00 +23°C° 0 mm 1 mps 735 mmHg 64%
06:00 +25°C° 0 mm 1 mps 735 mmHg 59%
07:00 +26°C° 0 mm 1 mps 736 mmHg 54%
08:00 +29°C° 0 mm 1 mps 736 mmHg 48%
09:00 +31°C° 0 mm 1 mps 735 mmHg 42%
10:00 +33°C° 0 mm 1 mps 735 mmHg 36%
11:00 +35°C° 0 mm 1 mps 735 mmHg 33%
12:00 +36°C° 0 mm 1 mps 735 mmHg 29%
13:00 +38°C° 0 mm 2 mps 734 mmHg 26%
14:00 +38°C° 0 mm 2 mps 734 mmHg 27%
15:00 +37°C° 0 mm 3 mps 733 mmHg 28%
16:00 +37°C° 0 mm 3 mps 733 mmHg 30%
17:00 +33°C° 0.2 mm 4 mps 733 mmHg 45%
18:00 +28°C° 0.2 mm 5 mps 734 mmHg 60%
19:00 +23°C° 0.2 mm 5 mps 734 mmHg 75%
20:00 +22°C° 0 mm 4 mps 734 mmHg 79%
21:00 +21°C° 0 mm 3 mps 734 mmHg 84%
22:00 +20°C° 0 mm 2 mps 734 mmHg 88%
23:00 +19°C° 0 mm 2 mps 735 mmHg 89%
Show more